Year,Month,Day,Hour,Minute,Value (Times are PST for temperature in C)
2011,10,16,00,00,3.70
2011,10,16,00,01,3.60
2011,10,16,00,02,3.60
2011,10,16,00,03,3.50
2011,10,16,00,04,3.40
2011,10,16,00,05,3.40
2011,10,16,00,06,3.40
2011,10,16,00,07,3.30
2011,10,16,00,08,3.30
2011,10,16,00,09,3.20
2011,10,16,00,10,3.20
2011,10,16,00,11,3.20
2011,10,16,00,12,3.20
2011,10,16,00,13,3.10
2011,10,16,00,14,3.10
2011,10,16,00,15,3.10
2011,10,16,00,16,3.00
2011,10,16,00,17,3.00
2011,10,16,00,18,2.90
2011,10,16,00,19,2.90
2011,10,16,00,20,2.90
2011,10,16,00,21,2.90
2011,10,16,00,22,2.80
2011,10,16,00,23,2.80
2011,10,16,00,24,2.80
2011,10,16,00,25,2.80
2011,10,16,00,26,2.80
2011,10,16,00,27,2.80
2011,10,16,00,28,2.90
2011,10,16,00,29,2.90
2011,10,16,00,30,3.00
2011,10,16,00,31,3.00
2011,10,16,00,32,3.10
2011,10,16,00,33,3.10
2011,10,16,00,34,3.10
2011,10,16,00,35,3.00
2011,10,16,00,36,3.00
2011,10,16,00,37,3.00
2011,10,16,00,38,2.90
2011,10,16,00,39,2.90
2011,10,16,00,40,2.90
2011,10,16,00,41,3.00
2011,10,16,00,42,3.00
2011,10,16,00,43,3.00
2011,10,16,00,44,3.10
2011,10,16,00,45,3.10
2011,10,16,00,46,3.10
2011,10,16,00,47,3.20
2011,10,16,00,48,3.20
2011,10,16,00,49,3.20
2011,10,16,00,50,3.20
2011,10,16,00,51,3.20
2011,10,16,00,52,3.20
2011,10,16,00,53,3.20
2011,10,16,00,54,3.20
2011,10,16,00,55,3.10
2011,10,16,00,56,3.10
2011,10,16,00,57,3.10
2011,10,16,00,58,3.10
2011,10,16,00,59,3.00
2011,10,16,01,00,3.00
2011,10,16,01,01,3.00
2011,10,16,01,02,2.90
2011,10,16,01,03,2.90
2011,10,16,01,04,2.90
2011,10,16,01,05,2.90
2011,10,16,01,06,2.90
2011,10,16,01,07,2.90
2011,10,16,01,08,3.00
2011,10,16,01,09,3.10
2011,10,16,01,10,3.10
2011,10,16,01,11,3.10
2011,10,16,01,12,3.20
2011,10,16,01,13,3.20
2011,10,16,01,14,3.20
2011,10,16,01,15,3.30
2011,10,16,01,16,3.30
2011,10,16,01,17,3.30
2011,10,16,01,18,3.30
2011,10,16,01,19,3.40
2011,10,16,01,20,3.40
2011,10,16,01,21,3.40
2011,10,16,01,22,3.30
2011,10,16,01,23,3.30
2011,10,16,01,24,3.30
2011,10,16,01,25,3.30
2011,10,16,01,26,3.20
2011,10,16,01,27,3.30
2011,10,16,01,28,3.30
2011,10,16,01,29,3.30
2011,10,16,01,30,3.30
2011,10,16,01,31,3.40
2011,10,16,01,32,3.40
2011,10,16,01,33,3.40
2011,10,16,01,34,3.40
2011,10,16,01,35,3.40
2011,10,16,01,36,3.40
2011,10,16,01,37,3.50
2011,10,16,01,38,3.50
2011,10,16,01,39,3.50
2011,10,16,01,40,3.50
2011,10,16,01,41,3.50
2011,10,16,01,42,3.50
2011,10,16,01,43,3.50
2011,10,16,01,44,3.40
2011,10,16,01,45,3.40
2011,10,16,01,46,3.40
2011,10,16,01,47,3.40
2011,10,16,01,48,3.30
2011,10,16,01,49,3.30
2011,10,16,01,50,3.30
2011,10,16,01,51,3.30
2011,10,16,01,52,3.30
2011,10,16,01,53,3.30
2011,10,16,01,54,3.20
2011,10,16,01,55,3.30
2011,10,16,01,56,3.30
2011,10,16,01,57,3.30
2011,10,16,01,58,3.40
2011,10,16,01,59,3.50
2011,10,16,02,00,3.60
2011,10,16,02,01,3.70
2011,10,16,02,02,3.70
2011,10,16,02,03,3.80
2011,10,16,02,04,3.80
2011,10,16,02,05,3.90
2011,10,16,02,06,3.90
2011,10,16,02,07,4.00
2011,10,16,02,08,4.10
2011,10,16,02,09,4.10
2011,10,16,02,10,4.10
2011,10,16,02,11,4.10
2011,10,16,02,12,4.10
2011,10,16,02,13,4.00
2011,10,16,02,14,4.00
2011,10,16,02,15,4.00
2011,10,16,02,16,3.90
2011,10,16,02,17,4.00
2011,10,16,02,18,3.90
2011,10,16,02,19,4.00
2011,10,16,02,20,4.00
2011,10,16,02,21,4.00
2011,10,16,02,22,4.10
2011,10,16,02,23,4.10
2011,10,16,02,24,4.10
2011,10,16,02,25,4.10
2011,10,16,02,26,4.10
2011,10,16,02,27,4.00
2011,10,16,02,28,4.00
2011,10,16,02,29,4.00
2011,10,16,02,30,3.90
2011,10,16,02,31,3.90
2011,10,16,02,32,3.90
2011,10,16,02,33,3.90
2011,10,16,02,34,4.00
2011,10,16,02,35,4.00
2011,10,16,02,36,4.00
2011,10,16,02,37,4.10
2011,10,16,02,38,4.10
2011,10,16,02,39,4.10
2011,10,16,02,40,4.20
2011,10,16,02,41,4.30
2011,10,16,02,42,4.40
2011,10,16,02,43,4.50
2011,10,16,02,44,4.60
2011,10,16,02,45,4.60
2011,10,16,02,46,4.70
2011,10,16,02,47,4.70
2011,10,16,02,48,4.70
2011,10,16,02,49,4.70
2011,10,16,02,50,4.70
2011,10,16,02,51,4.70
2011,10,16,02,52,4.70
2011,10,16,02,53,4.70
2011,10,16,02,54,4.70
2011,10,16,02,55,4.70
2011,10,16,02,56,4.70
2011,10,16,02,57,4.70
2011,10,16,02,58,4.70
2011,10,16,02,59,4.70
2011,10,16,03,00,4.80
2011,10,16,03,01,4.80
2011,10,16,03,02,4.80
2011,10,16,03,06,5.00
2011,10,16,03,07,5.00
2011,10,16,03,08,5.00
2011,10,16,03,09,5.00
2011,10,16,03,10,5.00
2011,10,16,03,11,5.00
2011,10,16,03,12,5.00
2011,10,16,03,13,5.00
2011,10,16,03,14,5.00
2011,10,16,03,15,5.00
2011,10,16,03,16,5.00
2011,10,16,03,17,5.00
2011,10,16,03,18,5.00
2011,10,16,03,19,5.00
2011,10,16,03,20,5.10
2011,10,16,03,21,5.10
2011,10,16,03,22,5.10
2011,10,16,03,23,5.10
2011,10,16,03,24,5.10
2011,10,16,03,25,5.20
2011,10,16,03,26,5.20
2011,10,16,03,27,5.20
2011,10,16,03,28,5.20
2011,10,16,03,29,5.20
2011,10,16,03,30,5.30
2011,10,16,03,31,5.30
2011,10,16,03,32,5.40
2011,10,16,03,33,5.40
2011,10,16,03,34,5.40
2011,10,16,03,35,5.40
2011,10,16,03,36,5.40
2011,10,16,03,37,5.30
2011,10,16,03,38,5.30
2011,10,16,03,39,5.30
2011,10,16,03,40,5.30
2011,10,16,03,41,5.30
2011,10,16,03,42,5.30
2011,10,16,03,43,5.30
2011,10,16,03,44,5.20
2011,10,16,03,45,5.20
2011,10,16,03,46,5.10
2011,10,16,03,47,5.10
2011,10,16,03,48,5.00
2011,10,16,03,49,5.00
2011,10,16,03,50,4.90
2011,10,16,03,51,4.90
2011,10,16,03,52,4.80
2011,10,16,03,53,4.80
2011,10,16,03,54,4.70
2011,10,16,03,55,4.70
2011,10,16,03,56,4.60
2011,10,16,03,57,4.50
2011,10,16,03,58,4.50
2011,10,16,03,59,4.40
2011,10,16,04,00,4.40
2011,10,16,04,01,4.40
2011,10,16,04,02,4.30
2011,10,16,04,03,4.20
2011,10,16,04,04,4.20
2011,10,16,04,05,4.10
2011,10,16,04,06,4.10
2011,10,16,04,07,4.00
2011,10,16,04,08,3.90
2011,10,16,04,09,3.80
2011,10,16,04,10,3.80
2011,10,16,04,11,3.80
2011,10,16,04,12,3.70
2011,10,16,04,13,3.70
2011,10,16,04,14,3.70
2011,10,16,04,15,3.60
2011,10,16,04,16,3.60
2011,10,16,04,17,3.60
2011,10,16,04,18,3.50
2011,10,16,04,19,3.50
2011,10,16,04,20,3.50
2011,10,16,04,21,3.50
2011,10,16,04,22,3.50
2011,10,16,04,23,3.40
2011,10,16,04,24,3.40
2011,10,16,04,25,3.40
2011,10,16,04,26,3.40
2011,10,16,04,27,3.40
2011,10,16,04,28,3.40
2011,10,16,04,29,3.40
2011,10,16,04,30,3.40
2011,10,16,04,31,3.40
2011,10,16,04,32,3.50
2011,10,16,04,33,3.50
2011,10,16,04,34,3.50
2011,10,16,04,35,3.50
2011,10,16,04,36,3.50
2011,10,16,04,37,3.50
2011,10,16,04,38,3.50
2011,10,16,04,39,3.60
2011,10,16,04,40,3.60
2011,10,16,04,41,3.60
2011,10,16,04,42,3.60
2011,10,16,04,43,3.60
2011,10,16,04,44,3.60
2011,10,16,04,45,3.70
2011,10,16,04,46,3.70
2011,10,16,04,47,3.70
2011,10,16,04,48,3.70
2011,10,16,04,49,3.70
2011,10,16,04,50,3.70
2011,10,16,04,51,3.60
2011,10,16,04,52,3.60
2011,10,16,04,53,3.70
2011,10,16,04,54,3.70
2011,10,16,04,55,3.70
2011,10,16,04,56,3.70
2011,10,16,04,57,3.80
2011,10,16,04,58,3.80
2011,10,16,04,59,3.80
2011,10,16,05,00,3.80
2011,10,16,05,01,3.80
2011,10,16,05,02,3.70
2011,10,16,05,03,3.70
2011,10,16,05,04,3.70
2011,10,16,05,05,3.70
2011,10,16,05,06,3.70
2011,10,16,05,07,3.70
2011,10,16,05,08,3.70
2011,10,16,05,09,3.70
2011,10,16,05,10,3.70
2011,10,16,05,11,3.60
2011,10,16,05,12,3.50
2011,10,16,05,13,3.50
2011,10,16,05,14,3.50
2011,10,16,05,15,3.60
2011,10,16,05,16,3.60
2011,10,16,05,17,3.50
2011,10,16,05,18,3.40
2011,10,16,05,19,3.40
2011,10,16,05,20,3.40
2011,10,16,05,21,3.30
2011,10,16,05,22,3.30
2011,10,16,05,23,3.20
2011,10,16,05,24,3.20
2011,10,16,05,25,3.20
2011,10,16,05,26,3.20
2011,10,16,05,27,3.10
2011,10,16,05,28,3.10
2011,10,16,05,29,3.10
2011,10,16,05,30,3.10
2011,10,16,05,31,3.10
2011,10,16,05,32,3.20
2011,10,16,05,33,3.30
2011,10,16,05,34,3.30
2011,10,16,05,35,3.30
2011,10,16,05,36,3.40
2011,10,16,05,37,3.50
2011,10,16,05,38,3.50
2011,10,16,05,39,3.60
2011,10,16,05,40,3.70
2011,10,16,05,41,3.70
2011,10,16,05,42,3.80
2011,10,16,05,43,3.90
2011,10,16,05,44,3.90
2011,10,16,05,45,4.00
2011,10,16,05,46,4.00
2011,10,16,05,47,4.00
2011,10,16,05,48,4.10
2011,10,16,05,49,4.10
2011,10,16,05,50,4.20
2011,10,16,05,51,4.20
2011,10,16,05,52,4.20
2011,10,16,05,53,4.20
2011,10,16,05,54,4.30
2011,10,16,05,55,4.30
2011,10,16,05,56,4.40
2011,10,16,05,57,4.40
2011,10,16,05,58,4.40
2011,10,16,05,59,4.40
2011,10,16,06,00,4.50
2011,10,16,06,01,4.60
2011,10,16,06,02,4.60
2011,10,16,06,03,4.60
2011,10,16,06,04,4.70
2011,10,16,06,05,4.70
2011,10,16,06,06,4.70
2011,10,16,06,07,4.80
2011,10,16,06,08,4.80
2011,10,16,06,09,4.80
2011,10,16,06,10,4.80
2011,10,16,06,11,4.80
2011,10,16,06,12,4.90
2011,10,16,06,13,4.90
2011,10,16,06,14,4.90
2011,10,16,06,15,4.90
2011,10,16,06,16,4.90
2011,10,16,06,17,4.90
2011,10,16,06,18,4.90
2011,10,16,06,19,4.90
2011,10,16,06,20,5.00
2011,10,16,06,21,5.00
2011,10,16,06,22,5.10
2011,10,16,06,23,5.10
2011,10,16,06,24,5.10
2011,10,16,06,25,5.20
2011,10,16,06,26,5.20
2011,10,16,06,27,5.20
2011,10,16,06,28,5.20
2011,10,16,06,29,5.20
2011,10,16,06,30,5.20
2011,10,16,06,31,5.20
2011,10,16,06,32,5.20
2011,10,16,06,33,5.20
2011,10,16,06,34,5.20
2011,10,16,06,35,5.20
2011,10,16,06,36,5.10
2011,10,16,06,37,5.10
2011,10,16,06,38,5.10
2011,10,16,06,39,5.10
2011,10,16,06,40,5.00
2011,10,16,06,41,5.00
2011,10,16,06,42,4.90
2011,10,16,06,43,4.90
2011,10,16,06,44,4.90
2011,10,16,06,45,4.80
2011,10,16,06,46,4.80
2011,10,16,06,47,4.80
2011,10,16,06,48,4.70
2011,10,16,06,49,4.70
2011,10,16,06,50,4.60
2011,10,16,06,51,4.60
2011,10,16,06,52,4.50
2011,10,16,06,53,4.50
2011,10,16,06,54,4.40
2011,10,16,06,55,4.40
2011,10,16,06,56,4.40
2011,10,16,06,57,4.40
2011,10,16,06,58,4.30
2011,10,16,06,59,4.30
2011,10,16,07,00,4.20
2011,10,16,07,01,4.20
2011,10,16,07,02,4.20
2011,10,16,07,03,4.10
2011,10,16,07,04,4.10
2011,10,16,07,05,4.00
2011,10,16,07,06,4.00
2011,10,16,07,07,3.90
2011,10,16,07,08,3.90
2011,10,16,07,09,3.90
2011,10,16,07,10,3.90
2011,10,16,07,11,3.80
2011,10,16,07,12,3.80
2011,10,16,07,13,3.90
2011,10,16,07,14,3.90
2011,10,16,07,15,3.90
2011,10,16,07,16,3.90
2011,10,16,07,17,4.00
2011,10,16,07,18,4.00
2011,10,16,07,19,4.00
2011,10,16,07,20,4.00
2011,10,16,07,21,3.90
2011,10,16,07,22,3.90
2011,10,16,07,23,3.90
2011,10,16,07,24,3.80
2011,10,16,07,25,3.80
2011,10,16,07,26,3.80
2011,10,16,07,27,3.80
2011,10,16,07,28,3.70
2011,10,16,07,29,3.70
2011,10,16,07,30,3.70
2011,10,16,07,31,3.70
2011,10,16,07,32,3.60
2011,10,16,07,33,3.60
2011,10,16,07,34,3.60
2011,10,16,07,35,3.50
2011,10,16,07,36,3.50
2011,10,16,07,37,3.50
2011,10,16,07,38,3.40
2011,10,16,07,39,3.40
2011,10,16,07,40,3.40
2011,10,16,07,41,3.30
2011,10,16,07,42,3.30
2011,10,16,07,43,3.30
2011,10,16,07,44,3.30
2011,10,16,07,45,3.30
2011,10,16,07,48,3.20
2011,10,16,07,49,3.20
2011,10,16,07,50,3.20
2011,10,16,07,51,3.20
2011,10,16,07,52,3.20
2011,10,16,07,53,3.20
2011,10,16,07,54,3.10
2011,10,16,07,55,3.20
2011,10,16,07,56,3.20
2011,10,16,07,57,3.20
2011,10,16,07,58,3.10
2011,10,16,07,59,3.10
2011,10,16,08,00,3.10
2011,10,16,08,01,3.00
2011,10,16,08,02,3.00
2011,10,16,08,03,2.90
2011,10,16,08,04,2.90
2011,10,16,08,05,2.90
2011,10,16,08,06,2.80
2011,10,16,08,07,2.80
2011,10,16,08,08,2.80
2011,10,16,08,09,2.70
2011,10,16,08,12,2.70
2011,10,16,08,13,2.70
2011,10,16,08,14,2.70
2011,10,16,08,16,2.70
2011,10,16,08,17,2.70
2011,10,16,08,18,2.70
2011,10,16,08,19,2.70
2011,10,16,08,20,2.80
2011,10,16,08,21,2.80
2011,10,16,08,22,3.00
2011,10,16,08,23,3.00
2011,10,16,08,24,3.10
2011,10,16,08,25,3.20
2011,10,16,08,26,3.30
2011,10,16,08,27,3.40
2011,10,16,08,28,3.50
2011,10,16,08,29,3.60
2011,10,16,08,30,3.70
2011,10,16,08,31,3.80
2011,10,16,08,32,4.00
2011,10,16,08,33,4.10
2011,10,16,08,34,4.20
2011,10,16,08,35,4.30
2011,10,16,08,36,4.40
2011,10,16,08,37,4.50
2011,10,16,08,38,4.50
2011,10,16,08,39,4.60
2011,10,16,08,40,4.70
2011,10,16,08,41,4.80
2011,10,16,08,42,4.80
2011,10,16,08,43,4.80
2011,10,16,08,44,5.00
2011,10,16,08,45,5.10
2011,10,16,08,46,5.20
2011,10,16,08,47,5.20
2011,10,16,08,48,5.30
2011,10,16,08,49,5.40
2011,10,16,08,50,5.40
2011,10,16,08,51,5.50
2011,10,16,08,52,5.60
2011,10,16,08,53,5.70
2011,10,16,08,54,5.70
2011,10,16,08,55,5.80
2011,10,16,08,56,5.80
2011,10,16,08,57,5.90
2011,10,16,08,58,5.90
2011,10,16,08,59,6.00
2011,10,16,09,00,6.10
2011,10,16,09,01,6.10
2011,10,16,09,02,6.10
2011,10,16,09,03,6.20
2011,10,16,09,04,6.20
2011,10,16,09,05,6.20
2011,10,16,09,06,6.30
2011,10,16,09,07,6.30
2011,10,16,09,08,6.30
2011,10,16,09,09,6.30
2011,10,16,09,10,6.30
2011,10,16,09,11,6.40
2011,10,16,09,12,6.40
2011,10,16,09,13,6.40
2011,10,16,09,14,6.50
2011,10,16,09,15,6.50
2011,10,16,09,16,6.50
2011,10,16,09,17,6.60
2011,10,16,09,18,6.60
2011,10,16,09,19,6.60
2011,10,16,09,20,6.60
2011,10,16,09,21,6.60
2011,10,16,09,22,6.70
2011,10,16,09,23,6.70
2011,10,16,09,24,6.70
2011,10,16,09,25,6.70
2011,10,16,09,26,6.70
2011,10,16,09,27,6.70
2011,10,16,09,28,6.80
2011,10,16,09,29,6.80
2011,10,16,09,30,6.80
2011,10,16,09,31,6.80
2011,10,16,09,32,6.80
2011,10,16,09,33,6.90
2011,10,16,09,34,6.90
2011,10,16,09,35,6.90
2011,10,16,09,36,6.90
2011,10,16,09,37,6.90
2011,10,16,09,38,6.90
2011,10,16,09,39,7.00
2011,10,16,09,40,7.00
2011,10,16,09,41,7.00
2011,10,16,09,42,7.10
2011,10,16,09,43,7.10
2011,10,16,09,44,7.10
2011,10,16,09,45,7.10
2011,10,16,09,46,7.10
2011,10,16,09,47,7.10
2011,10,16,09,48,7.10
2011,10,16,09,49,7.10
2011,10,16,09,50,7.10
2011,10,16,09,51,7.10
2011,10,16,09,52,7.20
2011,10,16,09,53,7.20
2011,10,16,09,54,7.20
2011,10,16,09,55,7.20
2011,10,16,09,56,7.20
2011,10,16,09,57,7.20
2011,10,16,09,58,7.20
2011,10,16,09,59,7.20
2011,10,16,10,00,7.20
2011,10,16,10,01,7.30
2011,10,16,10,02,7.30
2011,10,16,10,03,7.30
2011,10,16,10,04,7.40
2011,10,16,10,05,7.40
2011,10,16,10,06,7.40
2011,10,16,10,07,7.40
2011,10,16,10,08,7.40
2011,10,16,10,09,7.50
2011,10,16,10,10,7.50
2011,10,16,10,11,7.50
2011,10,16,10,12,7.50
2011,10,16,10,13,7.50
2011,10,16,10,14,7.50
2011,10,16,10,15,7.60
2011,10,16,10,16,7.60
2011,10,16,10,17,7.60
2011,10,16,10,18,7.60
2011,10,16,10,19,7.70
2011,10,16,10,20,7.70
2011,10,16,10,21,7.70
2011,10,16,10,22,7.70
2011,10,16,10,23,7.70
2011,10,16,10,24,7.70
2011,10,16,10,25,7.70
2011,10,16,10,26,7.80
2011,10,16,10,27,7.80
2011,10,16,10,28,7.80
2011,10,16,10,29,7.80
2011,10,16,10,30,7.80
2011,10,16,10,31,7.80
2011,10,16,10,32,7.80
2011,10,16,10,33,7.90
2011,10,16,10,34,7.90
2011,10,16,10,35,7.90
2011,10,16,10,36,8.00
2011,10,16,10,37,8.00
2011,10,16,10,38,8.00
2011,10,16,10,39,8.10
2011,10,16,10,40,8.10
2011,10,16,10,41,8.10
2011,10,16,10,42,8.10
2011,10,16,10,43,8.10
2011,10,16,10,44,8.10
2011,10,16,10,45,8.10
2011,10,16,10,46,8.10
2011,10,16,10,47,8.10
2011,10,16,10,48,8.10
2011,10,16,10,49,8.10
2011,10,16,10,50,8.10
2011,10,16,10,51,8.10
2011,10,16,10,52,8.10
2011,10,16,10,53,8.10
2011,10,16,10,54,8.10
2011,10,16,10,55,8.10
2011,10,16,10,56,8.10
2011,10,16,10,57,8.20
2011,10,16,10,58,8.20
2011,10,16,10,59,8.20
2011,10,16,11,00,8.30
2011,10,16,11,01,8.30
2011,10,16,11,02,8.30
2011,10,16,11,03,8.30
2011,10,16,11,04,8.40
2011,10,16,11,05,8.40
2011,10,16,11,06,8.50
2011,10,16,11,07,8.50
2011,10,16,11,08,8.60
2011,10,16,11,09,8.60
2011,10,16,11,10,8.60
2011,10,16,11,11,8.70
2011,10,16,11,12,8.70
2011,10,16,11,13,8.70
2011,10,16,11,14,8.80
2011,10,16,11,15,8.80
2011,10,16,11,16,8.80
2011,10,16,11,17,8.80
2011,10,16,11,18,8.80
2011,10,16,11,19,8.80
2011,10,16,11,20,8.80
2011,10,16,11,21,8.80
2011,10,16,11,22,8.80
2011,10,16,11,23,8.80
2011,10,16,11,24,8.80
2011,10,16,11,25,8.80
2011,10,16,11,26,8.80
2011,10,16,11,27,8.80
2011,10,16,11,28,8.80
2011,10,16,11,29,8.80
2011,10,16,11,30,8.90
2011,10,16,11,31,8.90
2011,10,16,11,32,8.90
2011,10,16,11,33,9.00
2011,10,16,11,34,9.10
2011,10,16,11,35,9.10
2011,10,16,11,36,9.10
2011,10,16,11,37,9.20
2011,10,16,11,38,9.10
2011,10,16,11,39,9.10
2011,10,16,11,40,9.10
2011,10,16,11,41,9.10
2011,10,16,11,42,9.10
2011,10,16,11,43,9.10
2011,10,16,11,44,9.10
2011,10,16,11,45,9.10
2011,10,16,11,46,9.20
2011,10,16,11,47,9.20
2011,10,16,11,48,9.30
2011,10,16,11,49,9.30
2011,10,16,11,50,9.30
2011,10,16,11,51,9.40
2011,10,16,11,52,9.40
2011,10,16,11,53,9.40
2011,10,16,11,54,9.50
2011,10,16,11,55,9.50
2011,10,16,11,56,9.60
2011,10,16,11,57,9.60
2011,10,16,11,58,9.60
2011,10,16,11,59,9.60
2011,10,16,12,00,9.60
2011,10,16,12,01,9.60
2011,10,16,12,02,9.70
2011,10,16,12,03,9.70
2011,10,16,12,04,9.70
2011,10,16,12,05,9.70
2011,10,16,12,06,9.70
2011,10,16,12,07,9.80
2011,10,16,12,08,9.80
2011,10,16,12,09,9.80
2011,10,16,12,10,9.80
2011,10,16,12,11,9.80
2011,10,16,12,12,9.80
2011,10,16,12,13,9.80
2011,10,16,12,14,9.80
2011,10,16,12,15,9.70
2011,10,16,12,16,9.70
2011,10,16,12,17,9.70
2011,10,16,12,18,9.70
2011,10,16,12,19,9.70
2011,10,16,12,20,9.60
2011,10,16,12,21,9.60
2011,10,16,12,22,9.50
2011,10,16,12,23,9.50
2011,10,16,12,24,9.50
2011,10,16,12,25,9.50
2011,10,16,12,26,9.60
2011,10,16,12,27,9.50
2011,10,16,12,28,9.50
2011,10,16,12,29,9.50
2011,10,16,12,30,9.40
2011,10,16,12,31,9.40
2011,10,16,12,32,9.40
2011,10,16,12,33,9.40
2011,10,16,12,34,9.30
2011,10,16,12,35,9.30
2011,10,16,12,36,9.30
2011,10,16,12,37,9.30
2011,10,16,12,38,9.30
2011,10,16,12,39,9.20
2011,10,16,12,40,9.20
2011,10,16,12,41,9.20
2011,10,16,12,42,9.20
2011,10,16,12,43,9.10
2011,10,16,12,44,9.10
2011,10,16,12,45,9.10
2011,10,16,12,46,9.10
2011,10,16,12,47,9.10
2011,10,16,12,48,9.10
2011,10,16,12,49,9.20
2011,10,16,12,50,9.20
2011,10,16,12,51,9.30
2011,10,16,12,52,9.30
2011,10,16,12,53,9.30
2011,10,16,12,54,9.20
2011,10,16,12,55,9.20
2011,10,16,12,56,9.20
2011,10,16,12,57,9.10
2011,10,16,12,58,9.10
2011,10,16,12,59,9.10
2011,10,16,13,00,9.10
2011,10,16,13,01,9.10
2011,10,16,13,02,9.10
2011,10,16,13,03,9.20
2011,10,16,13,04,9.20
2011,10,16,13,05,9.30
2011,10,16,13,06,9.30
2011,10,16,13,07,9.40
2011,10,16,13,08,9.40
2011,10,16,13,09,9.50
2011,10,16,13,10,9.50
2011,10,16,13,11,9.60
2011,10,16,13,12,9.60
2011,10,16,13,13,9.60
2011,10,16,13,14,9.70
2011,10,16,13,15,9.70
2011,10,16,13,16,9.70
2011,10,16,13,17,9.70
2011,10,16,13,18,9.70
2011,10,16,13,19,9.80
2011,10,16,13,20,9.80
2011,10,16,13,21,9.80
2011,10,16,13,22,9.80
2011,10,16,13,23,9.70
2011,10,16,13,24,9.70
2011,10,16,13,25,9.60
2011,10,16,13,26,9.60
2011,10,16,13,27,9.50
2011,10,16,13,28,9.40
2011,10,16,13,29,9.50
2011,10,16,13,30,9.50
2011,10,16,13,31,9.60
2011,10,16,13,32,9.60
2011,10,16,13,33,9.60
2011,10,16,13,34,9.60
2011,10,16,13,35,9.70
2011,10,16,13,36,9.70
2011,10,16,13,37,9.70
2011,10,16,13,38,9.70
2011,10,16,13,39,9.70
2011,10,16,13,40,9.70
2011,10,16,13,41,9.70
2011,10,16,13,42,9.60
2011,10,16,13,43,9.60
2011,10,16,13,44,9.60
2011,10,16,13,45,9.60
2011,10,16,13,46,9.60
2011,10,16,13,47,9.60
2011,10,16,13,48,9.60
2011,10,16,13,49,9.60
2011,10,16,13,50,9.60
2011,10,16,13,51,9.70
2011,10,16,13,52,9.70
2011,10,16,13,53,9.80
2011,10,16,13,54,9.80
2011,10,16,13,55,9.80
2011,10,16,13,56,9.90
2011,10,16,13,57,9.90
2011,10,16,13,58,10.00
2011,10,16,13,59,9.90
2011,10,16,14,00,9.90
2011,10,16,14,01,9.90
2011,10,16,14,02,10.00
2011,10,16,14,03,10.10
2011,10,16,14,04,10.10
2011,10,16,14,05,10.20
2011,10,16,14,06,10.20
2011,10,16,14,07,10.30
2011,10,16,14,08,10.30
2011,10,16,14,09,10.30
2011,10,16,14,10,10.30
2011,10,16,14,11,10.30
2011,10,16,14,12,10.30
2011,10,16,14,13,10.30
2011,10,16,14,14,10.30
2011,10,16,14,15,10.30
2011,10,16,14,16,10.30
2011,10,16,14,17,10.30
2011,10,16,14,18,10.30
2011,10,16,14,19,10.30
2011,10,16,14,20,10.30
2011,10,16,14,21,10.30
2011,10,16,14,22,10.30
2011,10,16,14,23,10.30
2011,10,16,14,24,10.40
2011,10,16,14,25,10.40
2011,10,16,14,26,10.40
2011,10,16,14,27,10.40
2011,10,16,14,28,10.40
2011,10,16,14,29,10.50
2011,10,16,14,30,10.50
2011,10,16,14,31,10.60
2011,10,16,14,32,10.60
2011,10,16,14,33,10.70
2011,10,16,14,34,10.70
2011,10,16,14,35,10.70
2011,10,16,14,36,10.70
2011,10,16,14,37,10.70
2011,10,16,14,38,10.60
2011,10,16,14,39,10.60
2011,10,16,14,40,10.60
2011,10,16,14,41,10.60
2011,10,16,14,42,10.50
2011,10,16,14,43,10.50
2011,10,16,14,44,10.50
2011,10,16,14,45,10.50
2011,10,16,14,46,10.40
2011,10,16,14,47,10.40
2011,10,16,14,48,10.40
2011,10,16,14,49,10.40
2011,10,16,14,50,10.40
2011,10,16,14,51,10.40
2011,10,16,14,52,10.40
2011,10,16,14,53,10.40
2011,10,16,14,54,10.40
2011,10,16,14,55,10.40
2011,10,16,14,56,10.40
2011,10,16,14,57,10.50
2011,10,16,14,58,10.50
2011,10,16,14,59,10.60
2011,10,16,15,00,10.60
2011,10,16,15,01,10.60
2011,10,16,15,02,10.60
2011,10,16,15,03,10.60
2011,10,16,15,04,10.60
2011,10,16,15,05,10.60
2011,10,16,15,06,10.60
2011,10,16,15,07,10.70
2011,10,16,15,08,10.60
2011,10,16,15,09,10.70
2011,10,16,15,10,10.70
2011,10,16,15,11,10.70
2011,10,16,15,12,10.70
2011,10,16,15,13,10.70
2011,10,16,15,14,10.60
2011,10,16,15,15,10.60
2011,10,16,15,16,10.60
2011,10,16,15,17,10.70
2011,10,16,15,18,10.70
2011,10,16,15,19,10.70
2011,10,16,15,20,10.70
2011,10,16,15,21,10.70
2011,10,16,15,22,10.70
2011,10,16,15,23,10.70
2011,10,16,15,24,10.70
2011,10,16,15,25,10.70
2011,10,16,15,26,10.70
2011,10,16,15,27,10.70
2011,10,16,15,28,10.80
2011,10,16,15,29,10.80
2011,10,16,15,30,10.90
2011,10,16,15,31,10.90
2011,10,16,15,32,11.00
2011,10,16,15,33,11.00
2011,10,16,15,34,11.00
2011,10,16,15,35,11.00
2011,10,16,15,36,11.00
2011,10,16,15,37,11.10
2011,10,16,15,38,11.10
2011,10,16,15,39,11.10
2011,10,16,15,40,11.00
2011,10,16,15,41,11.00
2011,10,16,15,42,11.00
2011,10,16,15,43,11.00
2011,10,16,15,44,11.00
2011,10,16,15,45,10.90
2011,10,16,15,46,10.90
2011,10,16,15,47,10.90
2011,10,16,15,48,10.90
2011,10,16,15,49,10.90
2011,10,16,15,50,10.90
2011,10,16,15,51,10.90
2011,10,16,15,52,10.90
2011,10,16,15,53,10.90
2011,10,16,15,54,10.90
2011,10,16,15,55,10.90
2011,10,16,15,56,10.90
2011,10,16,15,57,11.00
2011,10,16,15,58,11.10
2011,10,16,15,59,11.10
2011,10,16,16,00,11.10
2011,10,16,16,01,11.20
2011,10,16,16,02,11.20
2011,10,16,16,03,11.20
2011,10,16,16,04,11.20
2011,10,16,16,05,11.20
2011,10,16,16,06,11.20
2011,10,16,16,07,11.20
2011,10,16,16,08,11.20
2011,10,16,16,09,11.20
2011,10,16,16,10,11.20
2011,10,16,16,11,11.20
2011,10,16,16,12,11.20
2011,10,16,16,13,11.20
2011,10,16,16,16,11.20
2011,10,16,16,17,11.20
2011,10,16,16,18,11.20
2011,10,16,16,19,11.20
2011,10,16,16,20,11.20
2011,10,16,16,21,11.10
2011,10,16,16,22,11.10
2011,10,16,16,23,11.10
2011,10,16,16,24,11.10
2011,10,16,16,25,11.10
2011,10,16,16,26,11.10
2011,10,16,16,27,11.10
2011,10,16,16,28,11.10
2011,10,16,16,29,11.10
2011,10,16,16,30,11.10
2011,10,16,16,31,11.00
2011,10,16,16,32,11.00
2011,10,16,16,33,10.90
2011,10,16,16,34,10.90
2011,10,16,16,35,10.90
2011,10,16,16,36,10.90
2011,10,16,16,37,10.90
2011,10,16,16,38,10.90
2011,10,16,16,39,10.90
2011,10,16,16,40,10.90
2011,10,16,16,41,10.90
2011,10,16,16,42,10.90
2011,10,16,16,43,10.90
2011,10,16,16,44,10.90
2011,10,16,16,45,10.90
2011,10,16,16,46,10.90
2011,10,16,16,47,10.90
2011,10,16,16,48,10.90
2011,10,16,16,49,10.90
2011,10,16,16,50,10.90
2011,10,16,16,51,10.90
2011,10,16,16,52,10.90
2011,10,16,16,53,11.00
2011,10,16,16,54,11.00
2011,10,16,16,55,11.00
2011,10,16,16,56,11.10
2011,10,16,16,57,11.10
2011,10,16,16,58,11.10
2011,10,16,16,59,11.10
2011,10,16,17,00,11.20
2011,10,16,17,01,11.20
2011,10,16,17,02,11.20
2011,10,16,17,03,11.30
2011,10,16,17,04,11.30
2011,10,16,17,05,11.30
2011,10,16,17,06,11.30
2011,10,16,17,07,11.30
2011,10,16,17,08,11.30
2011,10,16,17,09,11.30
2011,10,16,17,10,11.30
2011,10,16,17,11,11.30
2011,10,16,17,12,11.20
2011,10,16,17,13,11.20
2011,10,16,17,14,11.20
2011,10,16,17,15,11.20
2011,10,16,17,16,11.20
2011,10,16,17,17,11.10
2011,10,16,17,18,11.10
2011,10,16,17,19,11.10
2011,10,16,17,20,11.10
2011,10,16,17,21,11.00
2011,10,16,17,22,11.00
2011,10,16,17,23,11.00
2011,10,16,17,24,11.00
2011,10,16,17,25,10.90
2011,10,16,17,26,10.90
2011,10,16,17,27,10.90
2011,10,16,17,28,10.90
2011,10,16,17,29,10.90
2011,10,16,17,30,10.80
2011,10,16,17,31,10.80
2011,10,16,17,32,10.80
2011,10,16,17,33,10.80
2011,10,16,17,34,10.80
2011,10,16,17,35,10.80
2011,10,16,17,36,10.80
2011,10,16,17,37,10.80
2011,10,16,17,38,10.80
2011,10,16,17,39,10.80
2011,10,16,17,40,10.70
2011,10,16,17,41,10.70
2011,10,16,17,42,10.70
2011,10,16,17,43,10.60
2011,10,16,17,44,10.60
2011,10,16,17,45,10.60
2011,10,16,17,46,10.50
2011,10,16,17,47,10.50
2011,10,16,17,48,10.40
2011,10,16,17,49,10.40
2011,10,16,17,50,10.40
2011,10,16,17,51,10.30
2011,10,16,17,52,10.30
2011,10,16,17,53,10.30
2011,10,16,17,54,10.20
2011,10,16,17,55,10.20
2011,10,16,17,56,10.20
2011,10,16,17,57,10.20
2011,10,16,17,58,10.10
2011,10,16,17,59,10.10
2011,10,16,18,00,10.10
2011,10,16,18,01,10.10
2011,10,16,18,02,10.00
2011,10,16,18,03,10.00
2011,10,16,18,04,9.90
2011,10,16,18,05,9.90